TimeCDT,TemperatureF,Dew PointF,Humidity,Sea Level PressureIn,VisibilityMPH,Wind Direction,Wind SpeedMPH,Gust SpeedMPH,PrecipitationIn,Events,Conditions,WindDirDegrees,DateUTC
12:15 AM,59.0,42.8,55,30.04,1.5,Calm,Calm,-,N/A,,Haze,0,2012-11-01 05:15:00
12:35 AM,59.0,42.8,55,30.04,10.0,West,3.5,-,N/A,,Clear,260,2012-11-01 05:35:00
12:55 AM,59.0,42.8,55,30.04,10.0,Calm,Calm,-,N/A,,Clear,0,2012-11-01 05:55:00
1:15 AM,57.2,42.8,59,30.04,10.0,Calm,Calm,-,N/A,,Clear,0,2012-11-01 06:15:00
1:35 AM,57.2,42.8,59,30.04,10.0,Calm,Calm,-,N/A,,Clear,0,2012-11-01 06:35:00
1:55 AM,60.8,44.6,55,30.04,10.0,Calm,Calm,-,N/A,,Clear,0,2012-11-01 06:55:00
2:15 AM,57.2,42.8,59,30.04,10.0,Calm,Calm,-,N/A,,Clear,0,2012-11-01 07:15:00
2:35 AM,57.2,42.8,59,30.04,10.0,Calm,Calm,-,N/A,,Clear,0,2012-11-01 07:35:00
2:55 AM,55.4,42.8,63,30.04,10.0,Calm,Calm,-,N/A,,Clear,0,2012-11-01 07:55:00
3:15 AM,57.2,44.6,63,30.04,10.0,Calm,Calm,-,N/A,,Clear,0,2012-11-01 08:15:00
3:35 AM,55.4,44.6,67,30.04,10.0,Calm,Calm,-,N/A,,Clear,0,2012-11-01 08:35:00
3:55 AM,55.4,44.6,67,30.03,10.0,Calm,Calm,-,N/A,,Clear,0,2012-11-01 08:55:00
4:15 AM,60.8,46.4,59,30.02,10.0,Calm,Calm,-,N/A,,Clear,0,2012-11-01 09:15:00
4:35 AM,53.6,46.4,77,30.02,10.0,Calm,Calm,-,N/A,,Clear,0,2012-11-01 09:35:00
4:55 AM,53.6,46.4,77,30.02,10.0,Calm,Calm,-,N/A,,Clear,0,2012-11-01 09:55:00
5:15 AM,57.2,46.4,67,30.02,10.0,WSW,3.5,-,N/A,,Clear,250,2012-11-01 10:15:00
5:35 AM,60.8,50.0,68,30.02,10.0,West,5.8,-,N/A,,Clear,270,2012-11-01 10:35:00
5:55 AM,60.8,50.0,68,30.02,10.0,Calm,Calm,-,N/A,,Clear,0,2012-11-01 10:55:00
6:15 AM,53.6,46.4,77,30.03,10.0,Calm,Calm,-,N/A,,Clear,0,2012-11-01 11:15:00
6:35 AM,51.8,46.4,82,30.04,10.0,Calm,Calm,-,N/A,,Clear,0,2012-11-01 11:35:00
6:55 AM,53.6,50.0,88,30.04,10.0,Calm,Calm,-,N/A,,Clear,0,2012-11-01 11:55:00
7:15 AM,51.8,48.2,88,30.04,10.0,Calm,Calm,-,N/A,,Clear,0,2012-11-01 12:15:00
7:35 AM,51.8,46.4,82,30.04,10.0,Calm,Calm,-,N/A,,Clear,0,2012-11-01 12:35:00
7:55 AM,53.6,48.2,82,30.05,10.0,Calm,Calm,-,N/A,,Clear,0,2012-11-01 12:55:00
8:15 AM,53.6,46.4,77,30.05,10.0,Calm,Calm,-,N/A,,Clear,0,2012-11-01 13:15:00
8:35 AM,53.6,48.2,82,30.06,10.0,Calm,Calm,-,N/A,,Clear,0,2012-11-01 13:35:00
8:55 AM,59.0,50.0,72,30.06,10.0,Calm,Calm,-,N/A,,Clear,0,2012-11-01 13:55:00
9:15 AM,64.4,53.6,68,30.07,10.0,WSW,4.6,-,N/A,,Clear,250,2012-11-01 14:15:00
9:35 AM,69.8,55.4,60,30.07,5.0,West,3.5,-,N/A,,Haze,260,2012-11-01 14:35:00
9:55 AM,69.8,55.4,60,30.07,10.0,WSW,5.8,-,N/A,,Clear,250,2012-11-01 14:55:00
10:15 AM,69.8,55.4,60,30.08,10.0,WSW,9.2,-,N/A,,Clear,250,2012-11-01 15:15:00
10:35 AM,71.6,55.4,57,30.08,10.0,WSW,6.9,-,N/A,,Clear,250,2012-11-01 15:35:00
10:55 AM,75.2,57.2,53,30.09,10.0,WSW,6.9,-,N/A,,Clear,250,2012-11-01 15:55:00
11:15 AM,75.2,53.6,47,30.09,10.0,SW,8.1,-,N/A,,Clear,230,2012-11-01 16:15:00
11:35 AM,77.0,53.6,44,30.09,10.0,SW,9.2,-,N/A,,Clear,220,2012-11-01 16:35:00
11:55 AM,77.0,53.6,44,30.08,10.0,WSW,6.9,-,N/A,,Clear,250,2012-11-01 16:55:00
12:15 PM,78.8,51.8,39,30.07,10.0,WSW,5.8,-,N/A,,Clear,240,2012-11-01 17:15:00
12:35 PM,80.6,50.0,34,30.06,10.0,WSW,5.8,-,N/A,,Clear,240,2012-11-01 17:35:00
12:55 PM,80.6,44.6,28,30.05,10.0,SSW,6.9,-,N/A,,Clear,210,2012-11-01 17:55:00
1:15 PM,82.4,39.2,21,30.04,10.0,SSW,8.1,-,N/A,,Clear,200,2012-11-01 18:15:00
1:35 PM,82.4,35.6,19,30.03,10.0,SW,6.9,-,N/A,,Clear,230,2012-11-01 18:35:00
1:55 PM,82.4,32.0,16,30.02,10.0,SSW,10.4,16.1,N/A,,Clear,210,2012-11-01 18:55:00
2:15 PM,82.4,32.0,16,30.01,10.0,South,6.9,-,N/A,,Clear,180,2012-11-01 19:15:00
2:35 PM,84.2,30.2,14,30.00,10.0,SW,11.5,-,N/A,,Clear,220,2012-11-01 19:35:00
3:15 PM,84.2,28.4,13,29.99,10.0,SW,6.9,-,N/A,,Clear,220,2012-11-01 20:15:00
3:35 PM,84.2,32.0,15,29.98,10.0,SSE,11.5,-,N/A,,Clear,160,2012-11-01 20:35:00
3:55 PM,86.0,33.8,15,29.98,10.0,SSE,9.2,-,N/A,,Clear,160,2012-11-01 20:55:00
4:35 PM,84.2,35.6,18,29.97,10.0,South,5.8,-,N/A,,Clear,190,2012-11-01 21:35:00
4:55 PM,84.2,35.6,18,29.97,10.0,SSE,8.1,-,N/A,,Clear,160,2012-11-01 21:55:00
5:15 PM,84.2,35.6,18,29.97,10.0,SSW,6.9,-,N/A,,Clear,200,2012-11-01 22:15:00
5:35 PM,82.4,37.4,20,29.97,10.0,South,6.9,-,N/A,,Clear,190,2012-11-01 22:35:00
5:55 PM,82.4,37.4,20,29.97,10.0,South,6.9,-,N/A,,Clear,180,2012-11-01 22:55:00
6:15 PM,80.6,35.6,20,29.97,10.0,South,4.6,-,N/A,,Clear,190,2012-11-01 23:15:00
6:35 PM,80.6,37.4,21,29.97,10.0,South,4.6,-,N/A,,Clear,180,2012-11-01 23:35:00
6:55 PM,77.0,39.2,26,29.98,10.0,South,3.5,-,N/A,,Clear,190,2012-11-01 23:55:00
7:15 PM,75.2,37.4,25,29.99,10.0,Calm,Calm,-,N/A,,Clear,0,2012-11-02 00:15:00
7:35 PM,75.2,39.2,27,29.99,10.0,Calm,Calm,-,N/A,,Clear,0,2012-11-02 00:35:00
7:55 PM,71.6,37.4,29,29.99,10.0,Calm,Calm,-,N/A,,Clear,0,2012-11-02 00:55:00
8:15 PM,71.6,39.2,31,29.99,10.0,Calm,Calm,-,N/A,,Clear,0,2012-11-02 01:15:00
8:35 PM,69.8,41.0,35,29.99,10.0,Calm,Calm,-,N/A,,Clear,0,2012-11-02 01:35:00
8:55 PM,69.8,42.8,38,30.00,10.0,Calm,Calm,-,N/A,,Clear,0,2012-11-02 01:55:00
9:15 PM,69.8,44.6,40,30.00,10.0,Calm,Calm,-,N/A,,Clear,0,2012-11-02 02:15:00
9:35 PM,69.8,46.4,43,30.00,10.0,Calm,Calm,-,N/A,,Clear,0,2012-11-02 02:35:00
9:55 PM,69.8,46.4,43,30.01,10.0,Calm,Calm,-,N/A,,Clear,0,2012-11-02 02:55:00
10:15 PM,68.0,46.4,46,30.01,10.0,Calm,Calm,-,N/A,,Clear,0,2012-11-02 03:15:00
10:35 PM,68.0,46.4,46,30.01,10.0,SW,3.5,-,N/A,,Clear,230,2012-11-02 03:35:00
10:55 PM,64.4,46.4,52,30.01,10.0,Calm,Calm,-,N/A,,Clear,0,2012-11-02 03:55:00
11:15 PM,64.4,46.4,52,30.01,10.0,Calm,Calm,-,N/A,,Clear,0,2012-11-02 04:15:00
11:35 PM,64.4,46.4,52,30.01,10.0,WSW,3.5,-,N/A,,Clear,250,2012-11-02 04:35:00
11:55 PM,64.4,48.2,56,30.01,10.0,SW,3.5,-,N/A,,Clear,230,2012-11-02 04:55:00